| time (UTC) | temp F | wind direction | speed MPH | gust MPH | rain 1hr in | rain 24hr in | rain mn in | humidity % | barometer mb |
| 20260503231552 | 75 | 206 | 7.0 | 13.0 | 0.00 | 0.00 | 0.00 | 43 | 1017.0 |
| 20260503230110 | 75 | 184 | 6.0 | 9.0 | 0.00 | 0.00 | 0.00 | 43 | 1017.2 |
| 20260503224551 | 75 | 181 | 7.0 | 11.0 | 0.00 | 0.00 | 0.00 | 43 | 1017.7 |
| 20260503223109 | 76 | 148 | 9.0 | 14.0 | 0.00 | 0.00 | 0.00 | 44 | 1017.6 |
| 20260503221554 | 77 | 191 | 8.0 | 15.0 | 0.00 | 0.00 | 0.00 | 45 | 1017.6 |
| 20260503220055 | 77 | 172 | 8.0 | 14.0 | 0.00 | 0.00 | 0.00 | 45 | 1017.6 |
| 20260503214557 | 77 | 186 | 10.0 | 17.0 | 0.00 | 0.00 | 0.00 | 46 | 1018.1 |
| 20260503213051 | 78 | 177 | 6.0 | 11.0 | 0.00 | 0.00 | 0.00 | 46 | 1018.3 |
| 20260503211553 | 77 | 174 | 6.0 | 13.0 | 0.00 | 0.00 | 0.00 | 47 | 1018.6 |
| 20260503210054 | 77 | 198 | 7.0 | 15.0 | 0.00 | 0.00 | 0.00 | 48 | 1018.9 |
| 20260503204557 | 77 | 211 | 3.0 | 17.0 | 0.00 | 0.00 | 0.00 | 49 | 1019.2 |
| 20260503203051 | 76 | 210 | 9.0 | 19.0 | 0.00 | 0.00 | 0.00 | 50 | 1019.8 |
| 20260503201553 | 77 | 143 | 9.0 | 16.0 | 0.00 | 0.00 | 0.00 | 51 | 1019.8 |
| 20260503200055 | 77 | 179 | 9.0 | 15.0 | 0.00 | 0.00 | 0.00 | 52 | 1020.1 |
| 20260503194616 | 77 | 186 | 7.0 | 15.0 | 0.00 | 0.00 | 0.00 | 53 | 1020.2 |
| 20260503193105 | 77 | 219 | 7.0 | 15.0 | 0.00 | 0.00 | 0.00 | 54 | 1020.6 |
| 20260503191557 | 76 | 180 | 3.0 | 13.0 | 0.00 | 0.00 | 0.00 | 56 | 1020.8 |
| 20260503190051 | 76 | 211 | 7.0 | 18.0 | 0.00 | 0.00 | 0.00 | 57 | 1021.0 |
| 20260503184553 | 76 | 168 | 11.0 | 15.0 | 0.00 | 0.00 | 0.00 | 59 | 1021.3 |
| 20260503183101 | 76 | 141 | 7.0 | 16.0 | 0.00 | 0.00 | 0.00 | 61 | 1021.5 |
| 20260503181607 | 75 | 198 | 7.0 | 15.0 | 0.00 | 0.00 | 0.00 | 62 | 1021.8 |
| 20260503180056 | 75 | 179 | 5.0 | 13.0 | 0.00 | 0.00 | 0.00 | 64 | 1022.2 |
| 20260503174606 | 76 | 244 | 2.0 | 11.0 | 0.00 | 0.00 | 0.00 | 65 | 1022.6 |
| 20260503173053 | 76 | 172 | 2.0 | 13.0 | 0.00 | 0.00 | 0.00 | 67 | 1022.8 |
| 20260503171555 | 75 | 220 | 5.0 | 15.0 | 0.00 | 0.00 | 0.00 | 68 | 1023.0 |
| 20260503170107 | 74 | 195 | 9.0 | 15.0 | 0.00 | 0.00 | 0.00 | 69 | 1023.1 |
| 20260503150105 | 75 | 0 | 0.0 | 5.0 | 0.00 | 0.00 | 0.00 | 74 | 1024.0 |
| 20260503120107 | 48 | 0 | 0.0 | 1.0 | 0.00 | 0.00 | 0.00 | 68 | 1022.7 |
| 20260503081554 | 52 | 0 | 0.0 | 1.0 | 0.00 | 0.00 | 0.00 | 61 | 1022.4 |
| 20260503071554 | 52 | 0 | 0.0 | 1.0 | 0.00 | 0.00 | 0.00 | 59 | 1022.6 |
| 20260503060103 | 55 | 0 | 0.0 | 2.0 | 0.00 | 0.00 | 0.00 | 57 | 1022.8 |
| 20260503054553 | 55 | 0 | 0.0 | 4.0 | 0.00 | 0.00 | 0.00 | 56 | 1022.9 |
| 20260503053053 | 54 | 0 | 0.0 | 0.0 | 0.00 | 0.00 | 0.00 | 55 | 1022.8 |
| 20260503051550 | 54 | 0 | 0.0 | 1.0 | 0.00 | 0.00 | 0.00 | 55 | 1022.6 |
| 20260503050053 | 54 | 0 | 0.0 | 0.0 | 0.00 | 0.00 | 0.00 | 54 | 1022.6 |
| 20260503044604 | 55 | 0 | 0.0 | 1.0 | 0.00 | 0.00 | 0.00 | 54 | 1022.8 |
| 20260503043056 | 55 | 192 | 0.0 | 1.0 | 0.00 | 0.00 | 0.00 | 53 | 1022.8 |
| 20260503041612 | 56 | 0 | 0.0 | 0.0 | 0.00 | 0.00 | 0.00 | 53 | 1022.7 |
| 20260503040057 | 56 | 0 | 0.0 | 0.0 | 0.00 | 0.00 | 0.00 | 52 | 1022.5 |
| 20260503034558 | 57 | 0 | 0.0 | 0.0 | 0.00 | 0.00 | 0.00 | 52 | 1022.5 |
| 20260503033114 | 57 | 0 | 0.0 | 0.0 | 0.00 | 0.00 | 0.00 | 52 | 1022.3 |
| 20260503031601 | 58 | 0 | 0.0 | 0.0 | 0.00 | 0.00 | 0.00 | 51 | 1022.2 |
| 20260503030109 | 59 | 0 | 0.0 | 0.0 | 0.00 | 0.00 | 0.00 | 51 | 1022.1 |
| 20260503024601 | 60 | 0 | 0.0 | 0.0 | 0.00 | 0.00 | 0.00 | 51 | 1022.0 |
| 20260503023056 | 60 | 0 | 0.0 | 0.0 | 0.00 | 0.00 | 0.00 | 51 | 1021.8 |
| 20260503021554 | 60 | 0 | 0.0 | 0.0 | 0.00 | 0.00 | 0.00 | 51 | 1021.7 |
| 20260503020058 | 61 | 0 | 0.0 | 0.0 | 0.00 | 0.00 | 0.00 | 51 | 1021.4 |
| 20260503014553 | 62 | 0 | 0.0 | 0.0 | 0.00 | 0.00 | 0.00 | 52 | 1021.4 |
| 20260503013053 | 65 | 0 | 0.0 | 0.0 | 0.00 | 0.00 | 0.00 | 52 | 1021.2 |
| 20260503011602 | 67 | 0 | 0.0 | 1.0 | 0.00 | 0.00 | 0.00 | 53 | 1021.0 |
| 20260503010058 | 68 | 158 | 1.0 | 2.0 | 0.00 | 0.00 | 0.00 | 53 | 1021.0 |
| 20260503004551 | 69 | 186 | 1.0 | 2.0 | 0.00 | 0.00 | 0.00 | 54 | 1021.0 |
| 20260503003101 | 70 | 73 | 0.0 | 3.0 | 0.00 | 0.00 | 0.00 | 55 | 1020.8 |
| 20260503001602 | 71 | 0 | 0.0 | 3.0 | 0.00 | 0.00 | 0.00 | 56 | 1020.9 |
| 20260503000050 | 71 | 123 | 0.0 | 5.0 | 0.00 | 0.00 | 0.00 | 57 | 1020.8 |
| 20260502234556 | 72 | 0 | 1.0 | 4.0 | 0.00 | 0.00 | 0.00 | 58 | 1020.8 |
| 20260502233054 | 73 | 28 | 3.0 | 6.0 | 0.00 | 0.00 | 0.00 | 59 | 1020.9 |
| 20260502231556 | 73 | 0 | 1.0 | 6.0 | 0.00 | 0.00 | 0.00 | 61 | 1021.2 |